{"data":{"norad_id":59369,"intl_designator":"2024-060X","name":"STARLINK-31583","alt_names":[],"object_type":"PAYLOAD","status":"ACTIVE","operator":null,"country":"US","launch_date":"2024-03-31","launch_site_code":"AFETR","launch_vehicle":null,"mission":null,"orbit_class":"UNKNOWN","rcs_meters":null,"size_class":null,"mass_kg":null,"dimensions":null,"purposes":["comms"],"wikipedia_slug":null,"has_3d_model":false,"image_url":null,"decayed_at":null,"tle_current":{"epoch":"2026-09-21T22:32:25.058688Z","epoch_age_seconds":37962,"freshness":"FRESH","line1":"1 59369U 24060X   26264.93917892 -.00000236  00000+0  94800-6 0  9990","line2":"2 59369  43.0024 220.5605 0001227 285.3366  74.7350 15.27571119140204","mean_motion":15.27571119,"eccentricity":0.0001227,"inclination_deg":43.0024,"raan_deg":220.5605,"arg_perigee_deg":285.3366,"mean_anomaly_deg":74.735,"bstar":9.48e-7,"rev_number":14020,"period_min":94.267296762109,"perigee_km":482.23381828046,"apogee_km":483.91755987436,"semimajor_km":6861.2126890774,"source":"CELESTRAK","updated_at":"2026-09-22T09:00:48.907367Z"}}}